Terminal Aerodrome Forecast
Issued by NWS

Home | Current Version | Previous Version | Text Only | Print | Product List | Glossary On
Versions: 1 2 3 4 5 6 7 8 9 10 11 12 13 14 15 16 17
109
FTUS44 KLZK 050536
TAFHOT
TAF
KHOT 050536Z 0506/0606 VRB04KT P6SM VCFG SCT015
      TEMPO 0506/0510 4SM BR BKN015
     FM051000 08003KT 3SM BR OVC012
     FM051200 09004KT P6SM VCSH BKN008 OVC020
     FM051800 07008KT 5SM -RA BR BKN008 OVC015 PROB30 0518/0524 2SM
      RA BR OVC005=

USA.gov is the U.S. government's official web portal to all federal, state and local government web resources and services.